Time,TemperatureF,DewpointF,PressureIn,WindDirection,WindDirectionDegrees,WindSpeedMPH,WindSpeedGustMPH,Humidity,HourlyPrecipIn,Conditions,Clouds,dailyrainin,SoftwareType,DateUTC
2013-05-16 00:24:00,53.0,34.0,-100.00,NW,305,5.0,11.0,48,0.00,,,0.00,,2013-05-16 07:24:00,
2013-05-16 00:34:00,53.0,34.0,-100.00,NW,305,5.0,11.0,48,0.00,,,0.00,,2013-05-16 07:34:00,
2013-05-16 00:44:00,53.0,34.0,-100.00,NW,305,5.0,11.0,48,0.00,,,0.00,,2013-05-16 07:44:00,
2013-05-16 00:53:00,53.0,35.0,-100.00,WNW,297,6.0,11.0,50,0.00,,,0.00,,2013-05-16 07:53:00,
2013-05-16 01:23:00,53.0,35.0,-100.00,WNW,297,6.0,11.0,50,0.00,,,0.00,,2013-05-16 08:23:00,
2013-05-16 01:34:00,53.0,35.0,-100.00,WNW,297,6.0,11.0,50,0.00,,,0.00,,2013-05-16 08:34:00,
2013-05-16 01:44:00,53.0,35.0,-100.00,WNW,297,6.0,11.0,50,0.00,,,0.00,,2013-05-16 08:44:00,
2013-05-16 01:53:00,51.0,34.0,-100.00,NNW,327,6.0,11.0,52,0.00,,,0.00,,2013-05-16 08:53:00,
2013-05-16 02:14:00,51.0,34.0,-100.00,NNW,327,6.0,11.0,52,0.00,,,0.00,,2013-05-16 09:14:00,
2013-05-16 02:24:00,51.0,34.0,-100.00,NNW,327,6.0,11.0,52,0.00,,,0.00,,2013-05-16 09:24:00,
2013-05-16 02:35:00,51.0,34.0,-100.00,NNW,327,6.0,11.0,52,0.00,,,0.00,,2013-05-16 09:35:00,
2013-05-16 02:45:00,51.0,34.0,-100.00,NNW,327,6.0,11.0,52,0.00,,,0.00,,2013-05-16 09:45:00,
2013-05-16 02:53:00,50.0,33.0,-100.00,NNW,328,5.0,8.0,51,0.00,,,0.00,,2013-05-16 09:53:00,
2013-05-16 03:24:00,50.0,33.0,-100.00,NNW,328,5.0,8.0,51,0.00,,,0.00,,2013-05-16 10:24:00,
2013-05-16 03:45:00,50.0,33.0,-100.00,NNW,328,5.0,8.0,51,0.00,,,0.00,,2013-05-16 10:45:00,
2013-05-16 04:14:00,50.0,27.0,-100.00,NNW,328,4.0,7.0,40,0.00,,,0.00,,2013-05-16 11:14:00,
2013-05-16 04:25:00,50.0,27.0,-100.00,NNW,328,4.0,7.0,40,0.00,,,0.00,,2013-05-16 11:25:00,
2013-05-16 05:13:00,49.0,23.0,-100.00,NW,315,4.0,7.0,36,0.00,,,0.00,,2013-05-16 12:13:00,
2013-05-16 05:23:00,49.0,23.0,-100.00,NW,315,4.0,7.0,36,0.00,,,0.00,,2013-05-16 12:23:00,
2013-05-16 05:53:00,48.0,33.0,-100.00,NW,326,4.0,11.0,56,0.00,,,0.00,,2013-05-16 12:53:00,
2013-05-16 06:12:00,48.0,33.0,-100.00,NW,326,4.0,11.0,56,0.00,,,0.00,,2013-05-16 13:12:00,
2013-05-16 06:43:00,48.0,33.0,-100.00,NW,326,4.0,11.0,56,0.00,,,0.00,,2013-05-16 13:43:00,
2013-05-16 06:53:00,48.0,31.0,-100.00,NW,309,4.0,10.0,52,0.00,,,0.00,,2013-05-16 13:53:00,
2013-05-16 07:15:00,48.0,31.0,-100.00,NW,309,4.0,10.0,52,0.00,,,0.00,,2013-05-16 14:15:00,
2013-05-16 07:23:00,48.0,31.0,-100.00,NW,309,4.0,10.0,52,0.00,,,0.00,,2013-05-16 14:23:00,
2013-05-16 07:37:00,48.0,31.0,-100.00,NW,309,4.0,10.0,52,0.00,,,0.00,,2013-05-16 14:37:00,
2013-05-16 07:47:00,48.0,31.0,-100.00,NW,309,4.0,10.0,52,0.00,,,0.00,,2013-05-16 14:47:00,
2013-05-16 07:53:00,51.0,35.0,-100.00,NW,319,5.0,8.0,55,0.00,,,0.00,,2013-05-16 14:53:00,
2013-05-16 08:17:00,51.0,35.0,-100.00,NW,319,5.0,8.0,55,0.00,,,0.00,,2013-05-16 15:17:00,
2013-05-16 08:28:00,51.0,35.0,-100.00,NW,319,5.0,8.0,55,0.00,,,0.00,,2013-05-16 15:28:00,
2013-05-16 08:40:00,51.0,35.0,-100.00,NW,319,5.0,8.0,55,0.00,,,0.00,,2013-05-16 15:40:00,
2013-05-16 08:50:00,51.0,35.0,-100.00,NW,319,5.0,8.0,55,0.00,,,0.00,,2013-05-16 15:50:00,
2013-05-16 08:53:00,53.0,34.0,-100.00,WNW,296,5.0,10.0,48,0.00,,,0.00,,2013-05-16 15:53:00,
2013-05-16 09:30:00,53.0,34.0,-100.00,WNW,296,5.0,10.0,48,0.00,,,0.00,,2013-05-16 16:30:00,
2013-05-16 09:40:00,53.0,-99.9,-100.00,WNW,296,5.0,10.0,48,0.00,,,0.00,,2013-05-16 16:40:00,
2013-05-16 09:50:00,53.0,34.0,-100.00,WNW,296,5.0,10.0,48,0.00,,,0.00,,2013-05-16 16:50:00,
2013-05-16 09:53:00,56.0,-99.9,-100.00,WNW,295,6.0,11.0,44,0.00,,,-99.99,,2013-05-16 16:53:00,
2013-05-16 10:30:00,56.0,34.0,-100.00,WNW,295,6.0,11.0,44,0.00,,,-99.99,,2013-05-16 17:30:00,
2013-05-16 10:40:00,56.0,34.0,-100.00,WNW,295,6.0,11.0,44,0.00,,,-99.99,,2013-05-16 17:40:00,
2013-05-16 10:50:00,56.0,-99.9,-100.00,WNW,295,6.0,11.0,44,0.00,,,-99.99,,2013-05-16 17:50:00,
2013-05-16 10:53:00,-999.0,-99.9,-100.00,WNW,286,7.0,12.0,46,0.00,,,0.00,,2013-05-16 17:53:00,
2013-05-16 11:30:00,-999.0,-99.9,-100.00,WNW,286,7.0,12.0,46,0.00,,,0.00,,2013-05-16 18:30:00,
2013-05-16 11:40:00,-999.0,-99.9,-100.00,WNW,286,7.0,12.0,46,0.00,,,0.00,,2013-05-16 18:40:00,
2013-05-16 11:50:00,-999.0,-99.9,-100.00,WNW,286,7.0,12.0,46,0.00,,,0.00,,2013-05-16 18:50:00,
2013-05-16 11:53:00,58.0,-99.9,-100.00,WNW,290,7.0,13.0,47,0.00,,,0.00,,2013-05-16 18:53:00,
2013-05-16 12:30:00,58.0,38.0,-100.00,WNW,290,7.0,13.0,47,0.00,,,0.00,,2013-05-16 19:30:00,
2013-05-16 12:40:00,58.0,-99.9,-100.00,WNW,290,7.0,13.0,47,0.00,,,0.00,,2013-05-16 19:40:00,
2013-05-16 12:50:00,-999.0,-99.9,-100.00,WNW,290,7.0,13.0,47,0.00,,,0.00,,2013-05-16 19:50:00,
2013-05-16 12:53:00,58.0,38.0,-100.00,WNW,293,8.0,15.0,48,0.00,,,0.00,,2013-05-16 19:53:00,
2013-05-16 13:20:00,58.0,-99.9,-100.00,WNW,293,8.0,15.0,48,0.00,,,0.00,,2013-05-16 20:20:00,
2013-05-16 13:30:00,58.0,38.0,-100.00,WNW,293,8.0,15.0,48,0.00,,,0.00,,2013-05-16 20:30:00,
2013-05-16 13:40:00,-999.0,-99.9,-100.00,WNW,293,8.0,15.0,48,0.00,,,0.00,,2013-05-16 20:40:00,
2013-05-16 13:50:00,58.0,38.0,-100.00,WNW,293,8.0,15.0,48,0.00,,,0.00,,2013-05-16 20:50:00,
2013-05-16 13:53:00,-999.0,-99.9,-100.00,WNW,290,7.0,14.0,51,0.00,,,0.00,,2013-05-16 20:53:00,
2013-05-16 14:29:00,56.0,38.0,-100.00,WNW,290,7.0,14.0,51,0.00,,,0.00,,2013-05-16 21:29:00,
2013-05-16 14:38:00,56.0,38.0,-100.00,WNW,290,7.0,14.0,51,0.00,,,0.00,,2013-05-16 21:38:00,
2013-05-16 14:50:00,56.0,-99.9,-100.00,WNW,290,7.0,14.0,51,0.00,,,0.00,,2013-05-16 21:50:00,
2013-05-16 14:53:00,54.0,40.0,-100.00,WNW,295,7.0,12.0,58,0.00,,,0.00,,2013-05-16 21:53:00,
2013-05-16 15:20:00,54.0,40.0,-100.00,WNW,295,7.0,12.0,58,0.00,,,0.00,,2013-05-16 22:20:00,
2013-05-16 15:30:00,54.0,40.0,-100.00,WNW,295,7.0,12.0,58,0.00,,,0.00,,2013-05-16 22:30:00,
2013-05-16 15:40:00,54.0,40.0,-100.00,WNW,295,7.0,12.0,58,0.00,,,0.00,,2013-05-16 22:40:00,
2013-05-16 15:50:00,54.0,40.0,-100.00,WNW,295,7.0,12.0,58,0.00,,,0.00,,2013-05-16 22:50:00,
2013-05-16 15:53:00,56.0,40.0,-100.00,WNW,288,6.0,16.0,55,0.00,,,0.00,,2013-05-16 22:53:00,
2013-05-16 16:16:00,56.0,40.0,-100.00,WNW,288,6.0,16.0,55,0.00,,,0.00,,2013-05-16 23:16:00,
2013-05-16 16:24:00,56.0,40.0,-100.00,WNW,288,6.0,16.0,55,0.00,,,0.00,,2013-05-16 23:24:00,
2013-05-16 16:34:00,56.0,40.0,-100.00,WNW,288,6.0,16.0,55,0.00,,,0.00,,2013-05-16 23:34:00,
2013-05-16 16:45:00,56.0,40.0,-100.00,WNW,288,6.0,16.0,55,0.00,,,0.00,,2013-05-16 23:45:00,
2013-05-16 17:13:00,52.0,39.0,-100.00,WNW,300,7.0,16.0,61,0.00,,,0.00,,2013-05-17 00:13:00,
2013-05-16 17:22:00,52.0,39.0,-100.00,WNW,300,7.0,16.0,61,0.00,,,0.00,,2013-05-17 00:22:00,
2013-05-16 17:33:00,52.0,39.0,-100.00,WNW,300,7.0,16.0,61,0.00,,,0.00,,2013-05-17 00:33:00,
2013-05-16 17:43:00,52.0,39.0,-100.00,WNW,300,7.0,16.0,61,0.00,,,0.00,,2013-05-17 00:43:00,
2013-05-16 17:52:00,52.0,39.0,-100.00,WNW,300,7.0,16.0,61,0.00,,,0.00,,2013-05-17 00:52:00,
2013-05-16 18:12:00,49.0,39.0,-100.00,WNW,301,7.0,12.0,67,0.00,,,0.00,,2013-05-17 01:12:00,
2013-05-16 18:23:00,49.0,39.0,-100.00,WNW,301,7.0,12.0,67,0.00,,,0.00,,2013-05-17 01:23:00,
2013-05-16 18:32:00,49.0,39.0,-100.00,WNW,301,7.0,12.0,67,0.00,,,0.00,,2013-05-17 01:32:00,
2013-05-16 18:43:00,49.0,39.0,-100.00,WNW,301,7.0,12.0,67,0.00,,,0.00,,2013-05-17 01:43:00,
2013-05-16 18:52:00,49.0,39.0,-100.00,WNW,301,7.0,12.0,67,0.00,,,0.00,,2013-05-17 01:52:00,
2013-05-16 19:11:00,48.0,38.0,-100.00,NW,308,7.0,12.0,69,0.00,,,0.00,,2013-05-17 02:11:00,
2013-05-16 19:21:00,48.0,38.0,-100.00,NW,308,7.0,12.0,69,0.00,,,0.00,,2013-05-17 02:21:00,
2013-05-16 19:32:00,48.0,38.0,-100.00,NW,308,7.0,12.0,69,0.00,,,0.00,,2013-05-17 02:32:00,
2013-05-16 19:41:00,48.0,38.0,-100.00,NW,308,7.0,12.0,69,0.00,,,0.00,,2013-05-17 02:41:00,
2013-05-16 19:52:00,48.0,38.0,-100.00,NW,308,7.0,12.0,69,0.00,,,0.00,,2013-05-17 02:52:00,
2013-05-16 19:53:00,47.0,34.0,-100.00,WNW,292,6.0,14.0,61,0.00,,,0.00,,2013-05-17 02:53:00,
2013-05-16 20:22:00,47.0,34.0,-100.00,WNW,292,6.0,14.0,61,0.00,,,0.00,,2013-05-17 03:22:00,
2013-05-16 20:34:00,47.0,34.0,-100.00,WNW,292,6.0,14.0,61,0.00,,,0.00,,2013-05-17 03:34:00,
2013-05-16 20:43:00,47.0,34.0,-100.00,WNW,292,6.0,14.0,61,0.00,,,0.00,,2013-05-17 03:43:00,
2013-05-16 20:53:00,45.0,30.0,-100.00,NW,308,4.0,12.0,56,0.00,,,0.00,,2013-05-17 03:53:00,
2013-05-16 21:13:00,45.0,30.0,-100.00,NW,308,4.0,12.0,56,0.00,,,0.00,,2013-05-17 04:13:00,
2013-05-16 21:23:00,45.0,30.0,-100.00,NW,308,4.0,12.0,56,0.00,,,0.00,,2013-05-17 04:23:00,
2013-05-16 21:33:00,45.0,30.0,-100.00,NW,308,4.0,12.0,56,0.00,,,0.00,,2013-05-17 04:33:00,
2013-05-16 21:43:00,45.0,30.0,-100.00,NW,308,4.0,12.0,56,0.00,,,0.00,,2013-05-17 04:43:00,
2013-05-16 22:14:00,46.0,31.0,-100.00,WNW,290,5.0,10.0,56,0.00,,,0.00,,2013-05-17 05:14:00,
2013-05-16 22:22:00,46.0,31.0,-100.00,WNW,290,5.0,10.0,56,0.00,,,0.00,,2013-05-17 05:22:00,
2013-05-16 22:32:00,46.0,31.0,-100.00,WNW,290,5.0,10.0,56,0.00,,,0.00,,2013-05-17 05:32:00,
2013-05-16 22:42:00,46.0,31.0,-100.00,WNW,290,5.0,10.0,56,0.00,,,0.00,,2013-05-17 05:42:00,
2013-05-16 22:51:00,46.0,31.0,-100.00,WNW,290,5.0,10.0,56,0.00,,,0.00,,2013-05-17 05:51:00,
2013-05-16 23:21:00,43.0,32.0,-100.00,NNW,333,3.0,10.0,66,0.00,,,0.00,,2013-05-17 06:21:00,
2013-05-16 23:32:00,43.0,32.0,-100.00,NNW,333,3.0,10.0,66,0.00,,,0.00,,2013-05-17 06:32:00,
2013-05-16 23:42:00,43.0,32.0,-100.00,NNW,333,3.0,10.0,66,0.00,,,0.00,,2013-05-17 06:42:00,
2013-05-16 23:51:00,43.0,32.0,-100.00,NNW,333,3.0,10.0,66,0.00,,,0.00,,2013-05-17 06:51:00,
2013-05-16 23:53:00,44.0,36.0,-100.00,WNW,296,5.0,12.0,73,0.00,,,0.00,,2013-05-17 06:53:00,